星链-36372(STARLINK-36372)

导读

STARLINK-36372是美国SpaceX星链星座的一员,于2026年2月21日发射升空。星链计划旨在搭建全球卫星互联网络,为全球范围提供高速低时延宽带服务,该卫星入轨后将进一步扩充星链星座规模,提升星座覆盖密度与服务能力,助力星链网络服务的稳定运行和拓展。

基本信息
目录编号:
67889
目录名称:
STARLINK-36372
国际标识:
2026-035L
轨道中心:
EARTH
卫星名称:
星链-36372
卫星全名:
星链-36372(STARLINK-36372)
卫星状态:
在轨 (已飞行195 天)
发射日期:
2026-02-21 UTC
国别 :
美国 (US)
星等 :
--
轨道信息
数据来源 国际轨道数据
星历时间: 2026-09-04T00:07:52+0800
14小时前
查看轨道信息
半长轴: 6843.677km
偏心率: 0.0002706
轨道倾角: 97.284°
近地点辐角 98.677°
升交点赤经 178.753°
平近点角 261.478°
近地点: 463.688km
远地点: 467.392km
周期: 93.906分钟
每日圈数: 15.334464
详细信息
固有亮度:
5
最大亮度:
2.5
卫星平台:
Starlink V1.0
覆盖范围:
全球
运营商:
太空探索技术公司
运营商所在国:
美国
制造商(研发单位):
太空探索技术公司
制造商所在国:
美国
使用方式:
暂无
卫星简介
Starlink 计划是 SpaceX 推出的全球卫星互联网项目,通过发射低轨道卫星,为全球尤其是偏远地区提供高速、低延迟的互联网服务。自 2019 年起,Starlink 已部署数千颗卫星,旨在缩小全球数字鸿沟,推动互联网普及。该项目还为军事、航空等行业提供通信支持,带来广泛经济效益。
2D轨道图
3D轨道图
轨道高度分析图
轨道倾角分析图
轨道综合分析图
查看轨道综合分析图
交会数据列表
事件ID 空间交会对象 最接近时刻(TCA) 交会距离 交会风险概率(CRP) 交会风险指数(CRI) 操作
CDM_260904-125706-436706-788921
2026-09-04T
12:57:44+0000
0.319 km
远距离
4.49076E-4 高风险 0.88
CDM_260905-020906-788906-796921
2026-09-05T
02:09:53+0000
0.759 km
远距离
4.90573E-5 中风险 0.69
CDM_260905-012206-788906-886121
2026-09-05T
01:22:47+0000
0.773 km
远距离
4.802055E-5 中风险 0.69
CDM_260905-003506-788906-796921
2026-09-05T
00:35:55+0000
1.111 km
极远距离
1.361245E-5 中风险 0.58
CDM_260905-073806-788906-796921
2026-09-05T
07:38:45+0000
1.203 km
极远距离
1.035757E-5 中风险 0.55
CDM_260905-060406-788906-796921
2026-09-05T
06:04:47+0000
1.221 km
极远距离
9.8437E-6 低风险 0.55
CDM_260904-212706-788906-886121
2026-09-04T
21:27:52+0000
2.064 km
极远距离
2.051132E-6 低风险 0.41
CDM_260904-234806-788906-886121
2026-09-04T
23:48:49+0000
2.080 km
极远距离
2.017817E-6 低风险 0.41
CDM_260905-133305-700406-788921
OBJECT A (57004)
2026-09-05T
13:33:46+0000
2.404 km
极远距离
1.914476E-6 低风险 0.41
CDM_260905-034306-788906-796921
2026-09-05T
03:43:51+0000
2.574 km
极远距离
1.275532E-6 低风险 0.37